IRIDIUM 44 (25078 NORAD) Tracking and Keplerian Element Data

This shows tracking and keplerian element data for the satellite.

Feedback or suggestion? Click here.




ElementValue
Catalog25078
NameIRIDIUM 44
Epoch Orbit47044
Epoch Day353.96926397
Epoch Year2025
RAAN142.9045
Inclination86.397
Eccentricity0.0003635
Argument of Perigee113.5122
Mean Anonmoly246.646
Mean Motion14.40437359
Decay Rate2.91E-06
L11 25078U 97077B 25353.96926397 .00000291 00000+0 85299-4 0 9999
L22 25078 86.3970 142.9045 0003635 113.5122 246.6460 14.40437359470441



Live tracking and technical data element details for IRIDIUM 44 (NORAD 25078). IRIDIUM 44 can be tracked NOW for your location showing map with azimuth and elevation plus other details from your city location.







IsCatalogInMostPopularTable: catalog: 25078, numindb: 633
Update: records affected: 1



GetName: 25078 IRIDIUM 44

Hit Count: updated at: Mon, 18 May 2026 10:05:31 GMT